Hourly Data Report for October 05, 2017

All times are specified in Local Standard Time (LST). Add 1 hour to adjust for Daylight Saving Time where and when it is observed.

YOHIN
NORTHWEST TERRITORIES

61°14'31.000" N
123°44'30.000" W
204.00 m
2204300
71020
XYH

Download Data

Hourly Data (October 2017)
Hourly Data Report for October 5, 2017
Temp Definition
°C
Dew Point Temp Definition
°C
Rel Hum Definition
%
Wind Dir Definition
10's deg

Wind Spd Definition
km/h
Visibility Definition
km
Stn Press Definition
kPa
Hmdx Definition


Wind Chill Definition


Weather Definition


TIME
00:00 1.4 0.8 96 LegendMM LegendMM   98.62     LegendNANA
01:00 0.9 0.4 97 LegendMM LegendMM   98.58     LegendNANA
02:00 -0.3 -0.6 98 LegendMM LegendMM   98.50     LegendNANA
03:00 -0.9 -1.2 98 LegendMM LegendMM   98.46     LegendNANA
04:00 -1.3 -1.6 98 LegendMM LegendMM   98.36     LegendNANA
05:00 -0.9 -1.1 98 LegendMM LegendMM   98.30     LegendNANA
06:00 -1.6 -1.8 99 LegendMM LegendMM   98.22     LegendNANA
07:00 -1.0 -1.1 99 LegendMM LegendMM   98.18     LegendNANA
08:00 0.2 0.1 99 LegendMM LegendMM   98.10     LegendNANA
09:00 1.9 1.8 99 LegendMM LegendMM   97.93     LegendNANA
10:00 2.7 2.3 97 LegendMM LegendMM   97.96     LegendNANA
11:00 3.9 2.8 93 LegendMM LegendMM   97.83     LegendNANA
12:00 10.1 4.8 69 LegendMM LegendMM   97.68     LegendNANA
13:00 16.8 2.4 38 LegendMM LegendMM   97.60     LegendNANA
14:00 19.0 1.0 30 LegendMM LegendMM   97.50     LegendNANA
15:00 19.3 -0.2 27 LegendMM LegendMM   97.47     LegendNANA
16:00 18.3 -0.1 29 LegendMM LegendMM   97.44     LegendNANA
17:00 17.9 0.2 30 LegendMM LegendMM   97.40     LegendNANA
18:00 17.1 0.5 33 LegendMM LegendMM   97.36     LegendNANA
19:00 14.3 0.5 39 LegendMM LegendMM   97.26     LegendNANA
20:00 14.3 0.1 38 LegendMM LegendMM   97.20     LegendNANA
21:00 14.7 -0.9 34 LegendMM LegendMM   97.14     LegendNANA
22:00 14.1 -0.2 38 LegendMM LegendMM   97.09     LegendNANA
23:00 14.0 0.2 39 LegendMM LegendMM   97.02     LegendNANA

Notes on Data Quality.

Legend

  • E = Estimated
  • M = Missing
  • NA = Not Available
  • ‡ = Partner data that is not subject to review by the National Climate Archives
Date modified: